This is the latest recevied weather packets stored in our database for station/object N4YH-13. If no packets are shown the sender has not sent any weather packets the latest 10 day(s).
| Time | Temp. | Humidity | Pressure | Rain* | Wind** | Luminosity | Snow |
|---|---|---|---|---|---|---|---|
| 1777822324 | 11.67° C | 61% | 1019.6 hPa | 0 mm | - | - | - |
| 1777822204 | 11.67° C | 60% | 1019.6 hPa | 0 mm | - | - | - |
| 1777822084 | 11.67° C | 60% | 1019.6 hPa | 0 mm | - | - | - |
| 1777821963 | 12.22° C | 60% | 1019.7 hPa | 0 mm | - | - | - |
| 1777821843 | 12.22° C | 61% | 1019.6 hPa | 0 mm | - | - | - |
| 1777821723 | 11.67° C | 62% | 1019.6 hPa | 0 mm | - | - | - |
| 1777821603 | 11.67° C | 64% | 1019.6 hPa | 0 mm | - | - | - |
| 1777821484 | 11.11° C | 64% | 1019.6 hPa | 0 mm | - | - | - |
| 1777821364 | 11.11° C | 65% | 1019.2 hPa | 0 mm | - | - | - |
| 1777821244 | 10.56° C | 63% | 1019.4 hPa | 0 mm | - | - | - |
| 1777821123 | 11.11° C | 62% | 1019.4 hPa | 0 mm | - | - | - |
| 1777821003 | 11.11° C | 63% | 1019.4 hPa | 0 mm | - | - | - |
| 1777820883 | 11.11° C | 64% | 1019.4 hPa | 0 mm | - | - | - |
| 1777820764 | 11.11° C | 64% | 1019.4 hPa | 0 mm | - | - | - |
| 1777820644 | 11.11° C | 63% | 1019.4 hPa | 0 mm | - | - | - |
| 1777820523 | 11.11° C | 64% | 1019.7 hPa | 0 mm | - | - | - |
| 1777820403 | 11.11° C | 65% | 1019.6 hPa | 0 mm | - | - | - |
| 1777820283 | 11.11° C | 64% | 1019.6 hPa | 0 mm | - | - | - |
| 1777820163 | 11.11° C | 64% | 1019.6 hPa | 0 mm | - | - | - |
| 1777820044 | 11.11° C | 65% | 1019.5 hPa | 0 mm | - | - | - |
| 1777819924 | 10.56° C | 66% | 1019.5 hPa | 0 mm | - | - | - |
| 1777819803 | 10.56° C | 67% | 1019.5 hPa | 0 mm | - | - | - |
| 1777819683 | 10.56° C | 66% | 1019.5 hPa | 0 mm | - | - | - |
| 1777819563 | 10.56° C | 68% | 1019.6 hPa | 0 mm | - | - | - |
| 1777819443 | 10° C | 68% | 1019.6 hPa | 0 mm | - | - | - |
* Rain latest hour (hover to see other rain measurements)
** Current wind speed in m/s (hover to see current wind gust speed)